EW9733 Weather Reports


Display with metric or nautical units.
time (UTC)temp
F
wind
direction
speed
MPH
gust
MPH
rain 1hr
in
rain 24hr
in
rain mn
in
humidity
%
barometer
mb
20260506081504 58 205 5.0 16.0 0.00 0.00 0.00 84 1009.7
20260506073100 58 134 4.0 14.0 0.00 0.00 0.00 83 1009.7
20260506071559 58 206 2.0 10.0 0.00 0.00 0.00 82 1009.5
20260506061552 59 196 4.0 16.0 0.00 0.00 0.00 80 1009.4
20260506044538 59 268 4.0 14.0 0.00 0.00 0.00 76 1010.0
20260506043031 59 205 7.0 17.0 0.00 0.00 0.00 75 1010.0
20260506041528 59 194 3.0 10.0 0.00 0.00 0.00 74 1009.9
20260506040027 59 150 6.0 16.0 0.00 0.00 0.00 73 1009.9
20260506034522 59 173 4.0 17.0 0.00 0.00 0.00 72 1009.8
20260506033021 59 286 4.0 12.0 0.00 0.00 0.00 72 1009.6
20260506031520 59 162 3.0 15.0 0.00 0.00 0.00 71 1009.6
20260506030021 59 202 4.0 13.0 0.00 0.00 0.00 71 1009.4
20260506024520 59 168 5.0 15.0 0.00 0.00 0.00 71 1009.5
20260506023034 59 247 7.0 17.0 0.00 0.00 0.00 71 1009.4
20260506021531 60 200 4.0 20.0 0.00 0.00 0.00 71 1009.3
20260506020017 60 180 5.0 16.0 0.00 0.00 0.00 71 1009.4
20260506014619 60 211 4.0 11.0 0.00 0.00 0.00 71 1009.5
20260506013019 60 224 3.0 17.0 0.00 0.00 0.00 70 1009.4
20260506011515 60 188 3.0 11.0 0.00 0.00 0.00 71 1009.1
20260506010015 60 165 5.0 13.0 0.00 0.00 0.00 71 1009.1
20260506004515 60 198 3.0 10.0 0.00 0.00 0.00 71 1008.9
20260506003015 60 186 3.0 11.0 0.00 0.00 0.00 70 1008.8
20260506001513 61 204 3.0 12.0 0.00 0.00 0.00 68 1008.6
20260506000008 61 211 3.0 13.0 0.00 0.00 0.00 67 1008.1
20260505234513 62 200 3.0 14.0 0.00 0.00 0.00 66 1007.8
20260505233007 63 141 5.0 18.0 0.00 0.00 0.00 65 1007.7
20260505231507 64 150 5.0 22.0 0.00 0.00 0.00 64 1007.6
20260505230010 64 180 5.0 16.0 0.00 0.00 0.00 62 1007.0
20260505224505 66 131 6.0 18.0 0.00 0.00 0.00 59 1006.8
20260505223005 67 236 2.0 16.0 0.00 0.00 0.00 57 1006.9
20260505221504 68 197 8.0 20.0 0.00 0.00 0.00 54 1006.8
20260505220003 68 205 6.0 17.0 0.00 0.00 0.00 54 1006.6
20260505214502 69 192 6.0 21.0 0.00 0.00 0.00 55 1006.5
20260505213004 69 204 5.0 15.0 0.00 0.00 0.00 55 1006.5
20260505211502 70 185 9.0 19.0 0.00 0.00 0.00 52 1006.5
20260505210100 71 223 4.0 22.0 0.00 0.00 0.00 53 1006.3
20260505204600 72 156 7.0 16.0 0.00 0.00 0.00 51 1006.5
20260505203121 73 190 2.0 14.0 0.00 0.00 0.00 50 1006.4
20260505201604 73 181 6.0 19.0 0.00 0.00 0.00 48 1006.7
20260505200059 74 221 5.0 16.0 0.00 0.00 0.00 47 1006.4
20260505194556 75 169 5.0 26.0 0.00 0.00 0.00 45 1006.5
20260505193056 76 189 6.0 15.0 0.00 0.00 0.00 45 1006.5
20260505191605 77 212 4.0 20.0 0.00 0.00 0.00 43 1006.5
20260505190055 77 144 5.0 16.0 0.00 0.00 0.00 45 1006.7
20260505184552 77 171 6.0 20.0 0.00 0.00 0.00 44 1006.8
20260505183049 76 180 7.0 23.0 0.00 0.00 0.00 45 1007.1
20260505181550 77 185 6.0 17.0 0.00 0.00 0.00 44 1007.3
20260505180051 77 223 7.0 20.0 0.00 0.00 0.00 46 1007.3
20260505174547 76 169 5.0 21.0 0.00 0.00 0.00 49 1007.7
20260505173049 76 233 6.0 15.0 0.00 0.00 0.00 46 1007.8
20260505171548 78 215 5.0 20.0 0.00 0.00 0.00 47 1007.6
20260505164543 78 178 3.0 10.0 0.00 0.00 0.00 46 1008.0
20260505163041 77 190 3.0 12.0 0.00 0.00 0.00 47 1008.2
20260505161535 76 222 2.0 9.0 0.00 0.00 0.00 49 1008.5
20260505153024 73 196 3.0 8.0 0.00 0.00 0.00 56 1008.5
20260505151521 71 200 3.0 8.0 0.00 0.00 0.00 56 1008.7
20260505124549 62 225 4.0 23.0 0.00 0.00 0.00 70 1009.3
20260505123044 61 202 3.0 11.0 0.00 0.00 0.00 72 1009.1
20260505121541 59 181 2.0 9.0 0.00 0.00 0.00 75 1009.2
20260505120039 58 234 2.0 10.0 0.00 0.00 0.00 77 1009.2
20260505114533 56 183 3.0 11.0 0.00 0.00 0.00 80 1009.1
20260505113027 55 200 2.0 10.0 0.00 0.00 0.00 83 1009.2
20260505111522 54 211 4.0 12.0 0.00 0.00 0.00 85 1009.2
20260505101514 51 132 2.0 10.0 0.00 0.00 0.00 88 1009.2
20260505100008 51 194 1.0 7.0 0.00 0.00 0.00 87 1009.1
20260505094505 51 204 2.0 7.0 0.00 0.00 0.00 87 1009.4
20260505093011 51 147 1.0 8.0 0.00 0.00 0.00 86 1009.4
20260505091502 51 174 1.0 7.0 0.00 0.00 0.00 86 1009.4
20260505090108 51 221 1.0 7.0 0.00 0.00 0.00 86 1009.6
20260505084600 51 163 1.0 6.0 0.00 0.00 0.00 86 1009.4
20260505083105 51 150 1.0 6.0 0.00 0.00 0.00 85 1009.3